Hourly Data Report for June 28, 2003

TORONTO CITY
ONTARIO

43°40'00.000" N
79°24'00.000" W
112.50 m
6158355
71508
XTO

Download Data

Hourly Data (June 2003)
Hourly Data Report for June 28, 2003
TIME
LST
Temp Definition
°C
Dew Point Definition
°C
Rel Hum Definition
%
Precip. Amount Definition
mm

Wind Dir Definition
10's deg

Wind Spd Definition
km/h
Visibility Definition
km
Stn Press Definition
kPa
Hmdx Definition


Wind Chill Definition


Weather Definition


00:00 16.6 12.1 75   LegendMM LegendMM LegendMM 99.96     LegendNANA
01:00 16.2 12.1 77   LegendMM LegendMM LegendMM 99.98     LegendNANA
02:00 15.8 12.4 80   LegendMM LegendMM LegendMM 100.01     LegendNANA
03:00 15.9 12.7 81   LegendMM LegendMM LegendMM 100.02     LegendNANA
04:00 16.5 13.6 83   LegendMM LegendMM LegendMM 100.01     LegendNANA
05:00 17.5 13.8 79   LegendMM LegendMM LegendMM 100.06     LegendNANA
06:00 18.3 13.9 76   LegendMM LegendMM LegendMM 100.10     LegendNANA
07:00
08:00 19.8 14.2 70   LegendMM LegendMM LegendMM 100.17     LegendNANA
09:00 20.3 14.4 69   LegendMM LegendMM LegendMM 100.19     LegendNANA
10:00 22.1 15.0 64   LegendMM LegendMM LegendMM 100.22 26   LegendNANA
11:00 22.9 15.2 62   LegendMM LegendMM LegendMM 100.23 27   LegendNANA
12:00 25.1 16.4 59   LegendMM LegendMM LegendMM 100.22 30   LegendNANA
13:00 24.0 14.5 55   LegendMM LegendMM LegendMM 100.20 28   LegendNANA
14:00 23.6 13.8 54   LegendMM LegendMM LegendMM 100.20 27   LegendNANA
15:00 25.4 14.9 52   LegendMM LegendMM LegendMM 100.14 29   LegendNANA
16:00 26.9 13.0 42   LegendMM LegendMM LegendMM 100.09 30   LegendNANA
17:00 25.8 11.4 41   LegendMM LegendMM LegendMM 100.11 28   LegendNANA
18:00 24.7 11.6 44   LegendMM LegendMM LegendMM 100.08 27   LegendNANA
19:00 24.0 12.0 47   LegendMM LegendMM LegendMM 100.07 26   LegendNANA
20:00 21.8 12.4 55   LegendMM LegendMM LegendMM 100.11     LegendNANA
21:00 21.3 12.9 59   LegendMM LegendMM LegendMM 100.13     LegendNANA
22:00 21.6 14.0 62   LegendMM LegendMM LegendMM 100.15 25   LegendNANA
23:00 21.4 13.7 61   LegendMM LegendMM LegendMM 100.11 25   LegendNANA

Notes on Data Quality.

Legend

  • E = Estimated
  • M = Missing
  • NA = Not Available*
  • [empty] = Indicates an unobserved value
Date modified: